Content
SEND FEEDBACK

Daily
Averages
Monthly
Summary
Albania

TIRANE, ALBANIA


Home > Europe > Albania
Elevation: 241 feet     Latitude: 41 20N     Longitude: 019 47E

WEATHER
 
SELECT A DAY
Number of Records: 154,438;   Date Range: 7/6/96 - 7/28/14
 
SHARE

PRINT THIS DATA

[ ← Previous Day ]
WEATHER ALMANAC - JANUARY 19, 2013
[ Next Day → ]
[ °C ]   °F
Weather ElementAverageHighLow
Temperature43.9 °F48.2 °F (10:20 am)37.4 °F (12:50 am)
Dewpoint39.1 °F42.8 °F (3:20 pm)35.6 °F (12:50 am)
Humidity83.1 %93 % (12:50 am)66 % (10:20 am)
Barometer29.69 in29.81 in (10:00 pm)29.47 in (12:50 am)
Wind Speed6.2 mph11.5 mph (12:20 pm)
Weather ElementAverage
Visibility7.2 mi
Wind DirectionSSE (160.4 °)

Weather ElementTotal
Precipitation---
Heating Degree Days22.2 (Base 65)
Averaged from 50 records on January 19, 2013
WEATHER CONDITIONS BREAKOUT
WIND DIRECTION BREAKOUT
WEATHER BY HOUR - JANUARY 19, 2013
[ °C ]   °F
Local TimeTemperatureDewpointHumidityBarometerVisibilityWind DirectionWind SpeedGust SpeedPrecipitationEventsConditions
12:50 AM37.4 °F35.6 °F93 %29.47 in6.2 miSouth (170°)8.1 mphPartly Cloudy
1:20 AM39.2 °F35.6 °F87 %29.50 in6.2 miSouth (190°)6.9 mphScattered Clouds
1:50 AM39.2 °F37.4 °F93 %29.50 in6.2 miSouth (180°)4.6 mphMostly Cloudy
2:20 AM41.0 °F35.6 °F81 %29.53 in6.2 miSSE (150°)3.5 mphOvercast
2:50 AM41.0 °F37.4 °F87 %29.53 in6.2 miSSE (150°)3.5 mphOvercast
3:20 AM41.0 °F37.4 °F87 %29.53 in6.2 miSSW (200°)4.6 mphOvercast
3:50 AM41.0 °F37.4 °F87 %29.56 in6.2 miSouth (190°)3.5 mphOvercast
4:00 AM42.0 °F37.0 °F75 %29.58 in47.0 miSouth (180°)4.5 mphScattered Clouds
4:20 AM41.0 °F37.4 °F87 %29.56 in6.2 miSouth (180°)4.6 mphLight Drizzle
4:50 AM41.0 °F37.4 °F87 %29.59 in6.2 miSouth (190°)4.6 mphOvercast
5:20 AM41.0 °F37.4 °F87 %29.59 in6.2 miVariable2.3 mphOvercast
5:50 AM41.0 °F37.4 °F87 %29.62 in6.2 miSE (130°)3.5 mphMostly Cloudy
6:20 AM41.0 °F37.4 °F87 %29.62 in6.2 miSSW (210°)3.5 mphMostly Cloudy
6:50 AM41.0 °F37.4 °F87 %29.65 in6.2 miSE (140°)3.5 mphMostly Cloudy
7:20 AM37.4 °F35.6 °F93 %29.65 in6.2 miSouth (170°)6.9 mphScattered Clouds
7:50 AM39.2 °F37.4 °F93 %29.65 in6.2 miSSW (200°)6.9 mphPartly Cloudy
8:20 AM42.8 °F37.4 °F81 %29.68 in6.2 miSouth (190°)5.8 mphScattered Clouds
8:50 AM42.8 °F39.2 °F87 %29.68 in6.2 miSSE (150°)5.8 mphScattered Clouds
9:20 AM44.6 °F37.4 °F76 %29.68 in6.2 miESE (120°)8.1 mphScattered Clouds
9:50 AM46.4 °F37.4 °F71 %29.68 in6.2 miSE (140°)10.4 mphPartly Cloudy
10:20 AM48.2 °F37.4 °F66 %29.68 in6.2 miSSE (150°)10.4 mphMostly Cloudy
10:50 AM48.2 °F39.2 °F71 %29.68 in6.2 miSouth (170°)8.1 mphMostly Cloudy
11:20 AM48.2 °F37.4 °F66 %29.68 in6.2 miSouth (180°)9.2 mphMostly Cloudy
11:50 AM48.2 °F39.2 °F71 %29.71 in6.2 miSouth (190°)10.4 mphMostly Cloudy
12:20 PM48.2 °F39.2 °F71 %29.71 in6.2 miSouth (170°)11.5 mphOvercast
12:50 PM48.2 °F39.2 °F71 %29.71 in6.2 miSSE (150°)9.2 mphMostly Cloudy
1:20 PM48.2 °F39.2 °F71 %29.71 in6.2 miESE (120°)8.1 mphMostly Cloudy
1:50 PM48.2 °F37.4 °F66 %29.71 in6.2 miSSE (150°)11.5 mphMostly Cloudy
2:20 PM48.2 °F37.4 °F66 %29.71 in6.2 miSE (130°)10.4 mphMostly Cloudy
2:50 PM46.4 °F41.0 °F81 %29.74 in6.2 miSSE (160°)11.5 mphRainLight Rain
3:20 PM46.4 °F42.8 °F87 %29.74 in3.1 miSE (140°)6.9 mphRainRain
3:50 PM44.6 °F42.8 °F93 %29.74 in6.2 miESE (110°)4.6 mphRainRain
4:00 PM45.0 °F42.0 °F86 %29.77 in16.0 mi°4.5 mphScattered Clouds
4:20 PM44.6 °F41.0 °F87 %29.74 in6.2 miCalmMostly Cloudy
4:50 PM44.6 °F41.0 °F87 %29.77 in6.2 miSouth (180°)5.8 mphMostly Cloudy
5:20 PM44.6 °F41.0 °F87 %29.77 in4.3 miSSE (150°)4.6 mphOvercast
5:50 PM42.8 °F41.0 °F93 %29.77 in3.7 miSSE (160°)4.6 mphMostly Cloudy
6:20 PM42.8 °F41.0 °F93 %29.77 in4.3 miSouth (170°)4.6 mphMostly Cloudy
6:50 PM44.6 °F41.0 °F87 %29.80 in5.0 miSSE (160°)4.6 mphMostly Cloudy
7:20 PM42.8 °F41.0 °F93 %29.80 in4.3 miSouth (180°)6.9 mphMostly Cloudy
7:50 PM44.6 °F41.0 °F87 %29.80 in6.2 miSouth (180°)5.8 mphMostly Cloudy
8:20 PM44.6 °F41.0 °F87 %29.80 in6.2 miSouth (190°)5.8 mphMostly Cloudy
8:50 PM44.6 °F41.0 °F87 %29.80 in6.2 miSouth (190°)5.8 mphMostly Cloudy
9:20 PM44.6 °F41.0 °F87 %29.80 in6.2 miSouth (170°)4.6 mphMostly Cloudy
9:50 PM44.6 °F41.0 °F87 %29.80 in6.2 miSouth (170°)5.8 mphOvercast
10:00 PM45.0 °F42.0 °F83 %29.81 in18.0 miSouth (170°)4.5 mphMostly Cloudy
10:20 PM44.6 °F41.0 °F87 %29.80 in6.2 miSouth (190°)6.9 mphOvercast
10:50 PM44.6 °F41.0 °F87 %29.80 in6.2 miSouth (180°)4.6 mphRainLight Rain
11:20 PM46.4 °F39.2 °F76 %29.77 in6.2 miSouth (190°)6.9 mphOvercast
11:50 PM46.4 °F41.0 °F81 %29.77 in6.2 miSouth (180°)5.8 mphOvercast
Hourly data recorded from LATI, located miles away from Tirane, Albania







STORIES FROM OUR PARTNERS